Regional Weather Roundup
Issued by NWS

Home | Current Version | Previous Version | Graphics & Text | Print | Product List | Glossary On
Versions: 1 2 3 4 5 6 7 8 9 10 11 12 13 14 15 16 17 18 19 20 21 22 23 24 25 26 27 28 29 30 31 32 33 34 35 36 37 38 39 40 41 42 43 44 45 46 47 48 49 50
000
ASUS43 KIND 170509
RWRIN

WEATHER ROUNDUP FOR INDIANA
NATIONAL WEATHER SERVICE INDIANAPOLIS IN
100 AM EDT THU APR 17 2014

NOTE: "FAIR" INDICATES FEW OR NO CLOUDS BELOW 12,000 FEET WITH NO
SIGNIFICANT WEATHER AND/OR OBSTRUCTIONS TO VISIBILITY.

* - STATION DOES NOT REPORT WEATHER SUCH AS PRECIPITATION OR FOG.

+ - STATION NOT QUALITY CONTROLLED BY THE NATIONAL WEATHER SERVICE.
    USE DATA WITH CAUTION...ESPECIALLY DEWPOINT AND RELATIVE
    HUMIDITY OBSERVATIONS.

INZ001>003-010>013-019-020-170600-
NORTHWEST INDIANA

CITY           SKY/WX    TMP DP  RH WIND       PRES   REMARKS
GARY /AIRPORT/ MOCLDY    46  23  41 SE14      30.19R
LA PORTE +     CLEAR     40  24  53 SE10G16   30.21S
MICHIGAN CITY+ PTCLDY    41  23  48 S8        30.21R
MONTICELLO +   CLEAR     41  26  56 SE6       30.19S
RENSSELAER +   PTCLDY    41  25  52 CALM      30.20R
VALPARAISO     PTCLDY    40  24  53 SE12      30.21R

$$

LMZ046-743>745-170600-
SOUTHERN LAKE MICHIGAN

STATION/POSITION TIME  TEMP WIND        PRES
                       AIR  DIR/SP/G
                 (UTC) (F)  (DEG/KT/KT) (MB)
MICHIGAN CITY    0500   44  130/ 14/ 22   N/A

$$

INZ004-005-014>016-021>024-170600-
NORTH CENTRAL INDIANA

CITY           SKY/WX    TMP DP  RH WIND       PRES   REMARKS
GOSHEN         PTCLDY    40  26  57 SE14      30.24F
LOGANSPORT +   CLEAR     36  28  75 SE9       30.23R
PERU/GRISSOM   CLEAR     38  29  71 SE12      30.22S
ROCHESTER +    CLEAR     41  28  60 SE14      30.23F
SOUTH BEND     CLEAR     42  24  49 SE18      30.22F
WARSAW +       PTCLDY    39  25  56 SE9       30.24S

$$

INZ006>009-017-018-025>027-170600-
NORTHEAST INDIANA

CITY           SKY/WX    TMP DP  RH WIND       PRES   REMARKS
ANGOLA *+      CLEAR     34  27  75 SE9       30.28S WCI  26
AUBURN +       PTCLDY    34  28  80 E7        30.29F WCI  28
FORT WAYNE     PTCLDY    37  26  64 E12       30.28F

$$

INZ028-029-035-036-043>045-051>053-170600-
WEST CENTRAL INDIANA

CITY           SKY/WX    TMP DP  RH WIND       PRES   REMARKS
GREENCASTLE +  CLEAR     37  27  65 SE6       30.21R
LAFAYETTE      CLEAR     39  25  57 E8        30.20S
TERRE HAUTE    CLEAR     43  26  51 SE8       30.19R

$$

INZ030>032-037>040-046>048-054>057-064-065-170600-
CENTRAL INDIANA

CITY           SKY/WX    TMP DP  RH WIND       PRES   REMARKS
CP ATTERBURY + PTCLDY    37  27  65 SE5       30.23F
INDIANAPOLIS   PTCLDY    40  24  53 SE9       30.22S
-EAGLE CREEK   CLEAR     42  22  44 SE8       30.21F
KOKOMO *+      CLEAR     37  27  65 SE13      30.22F
MARION +       FLURRIES  38  26  61 SE9       30.25S
MT COMFORT *+  CLEAR     39  27  60 SE7       30.23F
SHELBYVILLE    PTCLDY    40  26  57 SE9       30.23F
ZIONSVILLE +   CLEAR     41  23  50 SE9       30.23R

$$

INZ033-034-041-042-049-050-058-059-170600-
EAST CENTRAL INDIANA

CITY           SKY/WX    TMP DP  RH WIND       PRES   REMARKS
MUNCIE         CLEAR     36  27  69 SE8       30.25F

$$

INZ060-061-067>069-081>083-085>088-170600-
SOUTHWEST INDIANA

CITY           SKY/WX    TMP DP  RH WIND       PRES   REMARKS
EVANSVILLE     PTCLDY    46  29  51 SE6       30.19F
HUNTINGBURG *+ PTCLDY    43  27  52 SE9       30.21F
WASHINGTON +   PTCLDY    42  31  64 SE7       30.19F

$$

INZ062-063-066-070>080-084-089>092-170600-
SOUTH CENTRAL AND SOUTHEAST INDIANA

CITY           SKY/WX    TMP DP  RH WIND       PRES   REMARKS
BEDFORD +      PTCLDY    45  21  39 SE8       30.22
BLOOMINGTON    PTCLDY    43  24  47 SE8       30.20F
SEYMOUR +      PTCLDY    32  18  55 CALM      30.24

$$




USA.gov is the U.S. government's official web portal to all federal, state and local government web resources and services.